Regional Weather Roundup
Issued by NWS

Home | Current Version | Previous Version | Text Only | Print | Product List | Glossary On
Versions: 1 2 3 4 5 6 7 8 9 10 11 12 13 14 15 16 17 18 19 20 21 22 23 24 25 26 27 28 29 30 31 32 33 34 35 36 37 38 39 40 41 42 43 44 45 46 47 48 49 50
000
ASUS43 KIND 180009
RWRIN

WEATHER ROUNDUP FOR INDIANA
NATIONAL WEATHER SERVICE INDIANAPOLIS IN
800 PM EDT THU APR 17 2014

NOTE: "FAIR" INDICATES FEW OR NO CLOUDS BELOW 12,000 FEET WITH NO
SIGNIFICANT WEATHER AND/OR OBSTRUCTIONS TO VISIBILITY.

* - STATION DOES NOT REPORT WEATHER SUCH AS PRECIPITATION OR FOG.

+ - STATION NOT QUALITY CONTROLLED BY THE NATIONAL WEATHER SERVICE.
    USE DATA WITH CAUTION...ESPECIALLY DEWPOINT AND RELATIVE
    HUMIDITY OBSERVATIONS.

INZ001>003-010>013-019-020-180100-
NORTHWEST INDIANA

CITY           SKY/WX    TMP DP  RH WIND       PRES   REMARKS
GARY /AIRPORT/ CLOUDY    61  36  39 W10       30.21R
LA PORTE +     CLOUDY    59  36  41 W7        30.21S
6HR MIN TEMP:  59; 6HR MAX TEMP:  64;

MICHIGAN CITY+ CLOUDY    54  34  47 NW3       30.22S
MONTICELLO +   MOCLDY    61  38  41 SW7       30.21S
VALPARAISO     CLOUDY    58  38  47 W10       30.21S
6HR MIN TEMP:  58; 6HR MAX TEMP:  64;


$$

LMZ046-743>745-180100-
SOUTHERN LAKE MICHIGAN

STATION/POSITION TIME  TEMP WIND        PRES
                       AIR  DIR/SP/G
                 (UTC) (F)  (DEG/KT/KT) (MB)
MICHIGAN CITY    0000   51  350/  2/  2   N/A

$$

INZ004-005-014>016-021>024-180100-
NORTH CENTRAL INDIANA

CITY           SKY/WX    TMP DP  RH WIND       PRES   REMARKS
ELKHART        CLEAR     61  34  36 SW9       30.21
GOSHEN         PTCLDY    60  38  43 SW7       30.21S
6HR MIN TEMP:  60; 6HR MAX TEMP:  66;

LOGANSPORT +   MOCLDY    59  37  44 SW8       30.23S
PERU/GRISSOM   MOCLDY    59  40  48 SW9       30.23R
6HR MIN TEMP:  59; 6HR MAX TEMP:  67;

ROCHESTER +    PTCLDY    63  36  36 SW6       30.22S
SOUTH BEND     CLOUDY    62  36  37 W12       30.22S
6HR MIN TEMP:  62; 6HR MAX TEMP:  67;

WARSAW +       PTCLDY    61  36  39 SW5       30.22S

$$

INZ006>009-017-018-025>027-180100-
NORTHEAST INDIANA

CITY           SKY/WX    TMP DP  RH WIND       PRES   REMARKS
AUBURN +       PTCLDY    61  32  33 SW6       30.24R
FORT WAYNE     MOCLDY    60  33  36 W8        30.24S
6HR MIN TEMP:  60; 6HR MAX TEMP:  67;


$$

INZ028-029-035-036-043>045-051>053-180100-
WEST CENTRAL INDIANA

CITY           SKY/WX    TMP DP  RH WIND       PRES   REMARKS
LAFAYETTE      MOCLDY    61  35  37 SW6       30.23R
6HR MIN TEMP:  61; 6HR MAX TEMP:  66;

TERRE HAUTE    MOCLDY    62  36  37 S8        30.26R
6HR MIN TEMP:  62; 6HR MAX TEMP:  66;


$$

INZ030>032-037>040-046>048-054>057-064-065-180100-
CENTRAL INDIANA

CITY           SKY/WX    TMP DP  RH WIND       PRES   REMARKS
CP ATTERBURY + CLEAR     63  32  31 SW5       30.26R
COLUMBUS       CLEAR     63  34  34 S7        30.26R
INDIANAPOLIS   MOCLDY    58  36  43 W8        30.25R
6HR MIN TEMP:  58; 6HR MAX TEMP:  65;

-EAGLE CREEK   MOCLDY    61  32  33 SW3       30.24S
6HR MIN TEMP:  61; 6HR MAX TEMP:  64;

KOKOMO *+      MOCLDY    61  36  39 SW12      30.24R
MARION +       MOCLDY    61  33  35 SW7       30.24S
MT COMFORT *+  MOCLDY    59  37  44 SW3       30.26R
SHELBYVILLE    PTCLDY    63  37  38 S10       30.25R
6HR MIN TEMP:  63; 6HR MAX TEMP:  69;

ZIONSVILLE +   MOCLDY    61  32  33 SW7       30.25S
6HR MIN TEMP:  61; 6HR MAX TEMP:  66;


$$

INZ033-034-041-042-049-050-058-059-180100-
EAST CENTRAL INDIANA

CITY           SKY/WX    TMP DP  RH WIND       PRES   REMARKS
MUNCIE         MOCLDY    62  33  33 S10       30.24R
6HR MIN TEMP:  62; 6HR MAX TEMP:  66;


$$

INZ060-061-067>069-081>083-085>088-180100-
SOUTHWEST INDIANA

CITY           SKY/WX    TMP DP  RH WIND       PRES   REMARKS
EVANSVILLE     CLEAR     65  39  38 E3        30.25F
6HR MIN TEMP:  63; 6HR MAX TEMP:  68;

HUNTINGBURG *+ PTCLDY    63  41  45 W7        30.25F
6HR MIN TEMP:  63; 6HR MAX TEMP:  66;

WASHINGTON +   PTCLDY    61  44  54 S7        30.25S
6HR MIN TEMP:  61; 6HR MAX TEMP:  67;


$$

INZ062-063-066-070>080-084-089>092-180100-
SOUTH CENTRAL AND SOUTHEAST INDIANA

CITY           SKY/WX    TMP DP  RH WIND       PRES   REMARKS
BLOOMINGTON    MOCLDY    62  32  32 SW8       30.26R
6HR MIN TEMP:  62; 6HR MAX TEMP:  67;

NORTH VERNON + CLEAR     63  30  29 S8        30.28

$$




USA.gov is the U.S. government's official web portal to all federal, state and local government web resources and services.